Regional Weather Roundup
Issued by NWS

Home | Current Version | Previous Version | Text Only | Print | Product List | Glossary Off
Versions: 1 2 3 4 5 6 7 8 9 10 11 12 13 14 15 16 17 18 19 20 21 22 23 24 25 26 27 28 29 30 31 32 33 34 35 36 37 38 39 40 41 42 43 44 45 46 47 48 49 50

000
ASUS43 KFSD 061102
RWRSD

WEATHER ROUNDUP FOR SOUTH DAKOTA
NATIONAL WEATHER SERVICE SIOUX FALLS SD
600 AM CDT MON JUL 06 2015

NOTE: "FAIR" INDICATES FEW OR NO CLOUDS BELOW 12,000 FEET WITH NO
SIGNIFICANT WEATHER AND/OR OBSTRUCTIONS TO VISIBILITY.


SDZ001>005-009-010-012>017-061200-
NORTHWEST AND NORTH CENTRAL SOUTH DAKOTA

CITY           SKY/WX    TMP DP  RH WIND       PRES   REMARKS
BUFFALO          N/A     58  53  84 NW16      30.10S
FAITH            N/A     59  53  80 N9        30.12R
MOBRIDGE       CLOUDY    64  61  90 N8        30.02R FOG
$$

SDZ012>016-024>037-041>051-057-063-072>074-061200-
SOUTHWEST AND SOUTH CENTRAL SOUTH DAKOTA

CITY           SKY/WX    TMP DP  RH WIND       PRES   REMARKS
RAPID CTY ARPT CLOUDY    60  56  86 N16       30.15R FOG
PIERRE         CLOUDY    64  61  90 N15       30.00R FOG
CUSTER         RAIN      51  49  92 N6        30.22R VSB 1
ELLSWORTH AFB  CLOUDY    60  57  89 N14       30.14R
PHILIP         CLOUDY    63  59  87 N13       30.07R FOG
PINE RIDGE     CLOUDY    59  56  89 N10       30.12R FOG
WINNER         CLOUDY    64  60  87 NW14      29.99R FOG
$$

SDZ004>011-016>023-039-040-061200-
NORTHEAST SOUTH DAKOTA

CITY           SKY/WX    TMP DP  RH WIND       PRES   REMARKS
ABERDEEN       CLOUDY    65  62  90 N9        29.95F FOG
WATERTOWN      CLOUDY    65  63  93 N15       29.89F FOG
BROOKINGS      CLOUDY    66  63  88 N18       29.84F
SISSETON         N/A     62  60  93 N12       29.92S
$$

SDZ017-020-022-023-036>040-048>070-061200-
SOUTHEAST SOUTH DAKOTA

CITY           SKY/WX    TMP DP  RH WIND       PRES   REMARKS
SIOUX FALLS    LGT RAIN  69  68  96 E9        29.81R
HURON          LGT RAIN  64  62  93 N22G33    29.88S FOG
CHAMBERLAIN    CLOUDY    65  64  97 N12G20    29.95R FOG
MITCHELL       CLOUDY    67  65  93 N14       29.88R
YANKTON        CLOUDY    70  66  88 S9        29.85R
$$

ABBREVIATIONS USED IN REMARKS
   TC - TEMPERATURE IN CELSIUS
  WCI - WIND CHILL INDEX
   HX - HEAT INDEX
  VSB - VISIBILITY




USA.gov is the U.S. government's official web portal to all federal, state and local government web resources and services.